Location: Unspecified
(48.5539°N, 71.6350°W)
Time: 19:13:26
(UTC-05:00)

ISS - Pass Details

Date: 27 January 2019
Orbit: 403 x 411 km, 51.6° (Epoch: 17 February)

Event Time Altitude Azimuth Distance (km) Brightness Sun altitude
Rises 20:10:20 0° 282° (WNW) 2,341 1.1 -35.1°
Enters shadow 20:11:36 - 285° (WNW) 1,823 0.4 -35.3°
Reaches altitude 10° 20:12:28 10° 288° (WNW) 1,480 - -35.5°
Maximum altitude 20:15:42 48° 5° (N) 546 - -36.0°
Drops below altitude 10° 20:18:57 10° 82° (E) 1,483 - -36.5°
Sets 20:21:05 0° 88° (E) 2,345 - -36.9°
